Regional Weather Roundup
Issued by NWS Albany, NY

Home | Current Version | Previous Version | Text Only | Print | Product List | Glossary On
Versions: 1 2 3 4 5 6 7 8 9 10 11 12 13 14 15 16 17 18 19 20 21 22 23 24 25 26 27
000
ASUS41 KALY 060010
RWRALY

NEW YORK STATE HOURLY WEATHER ROUNDUP
NATIONAL WEATHER SERVICE ALBANY NY
800 PM EDT THU MAY 05 2016

NOTE: "FAIR" INDICATES FEW OR NO CLOUDS BELOW 12,000 FEET WITH NO
SIGNIFICANT WEATHER AND/OR NO OBSTRUCTIONS TO VISIBILITY.

NYZ032-033-038>043-046>054-057>066-NYZ062>081-082-084-060100-
EAST


CITY           SKY/WX    TMP DP  RH WIND       PRES   REMARKS
ALBANY         CLOUDY    56  44  64 N8        29.71S
GLENS FALLS    CLOUDY    57  43  59 N8        29.71F
POUGHKEEPSIE   CLOUDY    58  44  60 NE10      29.66R
NEWBURGH       CLOUDY    55  46  71 NE9       29.67R
MONTGOMERY     CLOUDY    56  45  66 NE17G24   29.66R
WHITE PLAINS   CLOUDY    53  43  68 NE8       29.65R
ISLIP          DRIZZLE   49  44  83 NE18G26   29.64R
NEW YORK CITY  CLOUDY    57  48  72 NE14G24   29.65R
CENTRAL PARK   CLOUDY    55  43  63 NE10G21   29.67R
$$

NYZ005>009-017-018-044>046-055-056-060100-
CENTRAL


CITY           SKY/WX    TMP DP  RH WIND       PRES   REMARKS
FULTON         PTCLDY    60  43  53 N13G21    29.75R
SYRACUSE       CLOUDY    58  43  57 NE8       29.73R
ROME           CLOUDY    59  43  55 NE10      29.73S
ELMIRA         CLOUDY    55  42  61 N12G18    29.73R
BINGHAMTON     CLOUDY    52  43  71 CALM      29.71R
MONTICELLO     CLOUDY    52  43  71 N7        29.69R
$$

NYZ026>034-041>043-087-060100-
NORTH


CITY           SKY/WX    TMP DP  RH WIND       PRES   REMARKS
WATERTOWN      CLEAR     56  41  57 NE13      29.77R
FORT DRUM      NOT AVBL
MASSENA        CLEAR     58  38  47 E12       29.81R
SARANAC LAKE   CLOUDY    51  40  65 NE7       29.77R
PLATTSBURGH    CLOUDY    58  41  53 MISG      29.78S
$$

NYZ001>004-010>016-019>021-085-060100-
WEST


CITY           SKY/WX    TMP DP  RH WIND       PRES   REMARKS
NIAGARA FALLS  MOCLDY    59  42  53 NE7       29.79R
BUFFALO        MOCLDY    59  42  53 N10       29.79R
DUNKIRK        PTCLDY    53  44  71 N6        29.79R
JAMESTOWN      CLOUDY    54  39  58 N10       29.78R
WELLSVILLE     PTCLDY    51  39  63 N10       29.76R
ROCHESTER      PTCLDY    55  42  61 NE8       29.78R
PENN YAN       CLOUDY    55  43  63 N8        29.75S
$$

             KEY
       WCI = WIND CHILL INDEX
       VSB = VISIBILITY
       HX  = HEAT INDEX
$$




USA.gov is the U.S. government's official web portal to all federal, state and local government web resources and services.